Regional Weather Roundup
Issued by NWS

Home | Current Version | Previous Version | Text Only | Print | Product List | Glossary Off
Versions: 1 2 3 4 5 6 7 8 9 10 11 12 13 14 15 16 17 18 19 20 21 22 23 24 25 26 27 28 29 30 31 32 33 34 35 36 37 38 39 40 41 42 43 44 45 46 47 48 49 50

000
ASUS43 KBIS 051402
RWRND

NORTH DAKOTA REGIONAL WEATHER ROUNDUP
NATIONAL WEATHER SERVICE BISMARCK ND
900 AM CDT THU MAY 05 2016

NOTE: "FAIR" INDICATES FEW OR NO CLOUDS BELOW 12,000 FEET WITH NO
SIGNIFICANT WEATHER AND/OR OBSTRUCTIONS TO VISIBILITY.


NDZ001>003-009>011-017-051500-
NORTHWEST NORTH DAKOTA

CITY           SKY/WX    TMP DP  RH WIND       PRES   REMARKS
WILLISTON      SUNNY     62  45  53 S8        29.86S
MINOT          SUNNY     72  42  34 SW18G29   29.84F
$$

NDZ018>021-031>035-040>046-051500-
SOUTHWEST NORTH DAKOTA

CITY           SKY/WX    TMP DP  RH WIND       PRES   REMARKS
BISMARCK       SUNNY     68  44  42 SW5       29.93S
DICKINSON      SUNNY     62  43  49 S13       29.89F
GARRISON         N/A     66  44  45 SW8       29.89S
HETTINGER ARPT SUNNY     59  43  55 S7        29.95S
$$

NDZ004>008-012>016-024-026-027-054-051500-
NORTHEAST NORTH DAKOTA

CITY           SKY/WX    TMP DP  RH WIND       PRES   REMARKS
GRAND FORKS    MOSUNNY   72  45  37 SW7       29.84S
GRND FRKS AFB  SUNNY     73  43  33 W20G25    29.83S
DEVILS LAKE    SUNNY     65  47  52 W15       29.87F
$$

NDZ022-023-025-028>030-036>039-047>053-051500-
SOUTHEAST NORTH DAKOTA

CITY           SKY/WX    TMP DP  RH WIND       PRES   REMARKS
FARGO          SUNNY     63  37  38 S13       29.91S
JAMESTOWN      SUNNY     68  43  40 W10       29.90S
$$




USA.gov is the U.S. government's official web portal to all federal, state and local government web resources and services.